| time (UTC) | temp F | wind direction | speed MPH | gust MPH | rain 1hr in | rain 24hr in | rain mn in | humidity % | barometer mb |
| 20260505034556 | 58 | 0 | 0.0 | 0.0 | 0.00 | 0.00 | 0.00 | 69 | 1016.1 |
| 20260505033100 | 59 | 0 | 0.0 | 0.0 | 0.00 | 0.00 | 0.00 | 69 | 1016.2 |
| 20260505031555 | 59 | 0 | 0.0 | 0.0 | 0.00 | 0.00 | 0.00 | 67 | 1016.2 |
| 20260505030055 | 60 | 0 | 0.0 | 0.0 | 0.00 | 0.00 | 0.00 | 67 | 1016.2 |
| 20260505024555 | 61 | 0 | 0.0 | 1.0 | 0.00 | 0.00 | 0.00 | 66 | 1016.2 |
| 20260505023058 | 62 | 0 | 0.0 | 0.0 | 0.00 | 0.00 | 0.00 | 63 | 1016.2 |
| 20260505021602 | 63 | 0 | 0.0 | 0.0 | 0.00 | 0.00 | 0.00 | 61 | 1016.2 |
| 20260505020054 | 64 | 0 | 0.0 | 0.0 | 0.00 | 0.00 | 0.00 | 60 | 1016.0 |
| 20260505014556 | 65 | 0 | 0.0 | 0.0 | 0.00 | 0.00 | 0.00 | 58 | 1015.9 |
| 20260505013050 | 66 | 0 | 0.0 | 1.0 | 0.00 | 0.00 | 0.00 | 56 | 1015.8 |
| 20260505011600 | 67 | 0 | 0.0 | 0.0 | 0.00 | 0.00 | 0.00 | 54 | 1015.6 |
| 20260505010104 | 68 | 0 | 0.0 | 0.0 | 0.00 | 0.00 | 0.00 | 52 | 1015.4 |
| 20260505004602 | 70 | 0 | 0.0 | 0.0 | 0.00 | 0.00 | 0.00 | 50 | 1015.3 |
| 20260505003056 | 71 | 0 | 0.0 | 0.0 | 0.00 | 0.00 | 0.00 | 47 | 1015.2 |
| 20260505001556 | 72 | 0 | 0.0 | 0.0 | 0.00 | 0.00 | 0.00 | 46 | 1015.1 |
| 20260505000101 | 73 | 0 | 0.0 | 0.0 | 0.00 | 0.00 | 0.00 | 43 | 1014.9 |
| 20260504234605 | 74 | 0 | 0.0 | 0.0 | 0.00 | 0.00 | 0.00 | 41 | 1015.0 |
| 20260504233059 | 74 | 0 | 0.0 | 2.0 | 0.00 | 0.00 | 0.00 | 39 | 1014.9 |
| 20260504231552 | 75 | 122 | 0.0 | 3.0 | 0.00 | 0.00 | 0.00 | 38 | 1015.0 |
| 20260504230055 | 75 | 0 | 0.0 | 3.0 | 0.00 | 0.00 | 0.00 | 35 | 1015.1 |
| 20260504224554 | 76 | 218 | 1.0 | 7.0 | 0.00 | 0.00 | 0.00 | 34 | 1015.1 |
| 20260504223055 | 76 | 0 | 0.0 | 4.0 | 0.00 | 0.00 | 0.00 | 34 | 1015.1 |
| 20260504221551 | 77 | 0 | 1.0 | 4.0 | 0.00 | 0.00 | 0.00 | 33 | 1015.1 |
| 20260504214557 | 78 | 217 | 2.0 | 8.0 | 0.00 | 0.00 | 0.00 | 32 | 1015.0 |
| 20260504213109 | 79 | 219 | 0.0 | 7.0 | 0.00 | 0.00 | 0.00 | 32 | 1015.0 |
| 20260504211554 | 79 | 185 | 3.0 | 8.0 | 0.00 | 0.00 | 0.00 | 31 | 1015.0 |
| 20260504210054 | 80 | 0 | 1.0 | 5.0 | 0.00 | 0.00 | 0.00 | 30 | 1015.0 |
| 20260504204600 | 79 | 196 | 0.0 | 5.0 | 0.00 | 0.00 | 0.00 | 30 | 1015.2 |
| 20260504203053 | 80 | 115 | 2.0 | 4.0 | 0.00 | 0.00 | 0.00 | 29 | 1015.3 |
| 20260504201553 | 81 | 240 | 2.0 | 7.0 | 0.00 | 0.00 | 0.00 | 27 | 1015.4 |
| 20260504200055 | 81 | 211 | 3.0 | 9.0 | 0.00 | 0.00 | 0.00 | 28 | 1015.6 |
| 20260504194559 | 81 | 0 | 1.0 | 5.0 | 0.00 | 0.00 | 0.00 | 28 | 1015.7 |
| 20260504193112 | 81 | 140 | 2.0 | 5.0 | 0.00 | 0.00 | 0.00 | 28 | 1016.1 |
| 20260504191555 | 80 | 227 | 1.0 | 7.0 | 0.00 | 0.00 | 0.00 | 29 | 1016.3 |
| 20260504190105 | 80 | 38 | 1.0 | 8.0 | 0.00 | 0.00 | 0.00 | 30 | 1016.5 |
| 20260504184551 | 83 | 141 | 2.0 | 6.0 | 0.00 | 0.00 | 0.00 | 27 | 1016.6 |
| 20260504183101 | 82 | 191 | 1.0 | 7.0 | 0.00 | 0.00 | 0.00 | 29 | 1016.8 |
| 20260504181559 | 81 | 193 | 1.0 | 6.0 | 0.00 | 0.00 | 0.00 | 30 | 1017.1 |
| 20260504180131 | 80 | 77 | 1.0 | 5.0 | 0.00 | 0.00 | 0.00 | 29 | 1017.2 |
| 20260504174550 | 78 | 62 | 0.0 | 3.0 | 0.00 | 0.00 | 0.00 | 31 | 1017.3 |
| 20260504173050 | 78 | 73 | 1.0 | 4.0 | 0.00 | 0.00 | 0.00 | 29 | 1017.5 |
| 20260504171552 | 80 | 347 | 2.0 | 4.0 | 0.00 | 0.00 | 0.00 | 29 | 1017.6 |
| 20260504120105 | 45 | 0 | 0.0 | 0.0 | 0.00 | 0.00 | 0.00 | 90 | 1018.8 |
| 20260504081553 | 47 | 0 | 0.0 | 0.0 | 0.00 | 0.00 | 0.00 | 83 | 1018.2 |
| 20260504060106 | 50 | 0 | 0.0 | 0.0 | 0.00 | 0.00 | 0.00 | 75 | 1018.7 |
| 20260504044552 | 52 | 0 | 0.0 | 0.0 | 0.00 | 0.00 | 0.00 | 71 | 1019.3 |
| 20260504043059 | 52 | 0 | 0.0 | 0.0 | 0.00 | 0.00 | 0.00 | 71 | 1019.1 |
| 20260504041557 | 53 | 0 | 0.0 | 0.0 | 0.00 | 0.00 | 0.00 | 70 | 1019.2 |